Tracking 20241 objects as of 25-Jan-2020
HD Live streaming from Space Station
objects crossing your sky now

RADUGA 1

Track RADUGA 1 now!
RADUGA 1 is classified as:


NORAD ID: 8513
Int'l Code: 1975-123A
Perigee: 35,786.1 km
Apogee: 35,814.9 km
Inclination: 8.6 °
Period: 1,436.4 minutes
Semi major axis: 42171 km
RCS: 2.5118 m2 (large)
Launch date: December 22, 1975
Source: Commonwealth of Independent States (former USSR) (CIS)
Launch site: TYURATAM MISSILE AND SPACE COMPLEX (TTMTR)
aabbcc
Your satellite tracking list
Your tracking list is empty




NASA's NSSDC Master Catalog

Two Line Element Set (TLE):
1  8513U 75123A   20023.96936685 -.00000110  00000-0  00000+0 0  9996
2  8513   8.6098 300.3168 0003418 203.5218  46.0226  1.00247623171518
Source of the keplerian elements: AFSPC